This is the latest recevied weather packets stored in our database for station/object KM6YFK-13. If no packets are shown the sender has not sent any weather packets the latest 1 day(s).
| Time | Temp. | Humidity | Pressure | Rain* | Wind** | Luminosity | Snow |
|---|---|---|---|---|---|---|---|
| 1836274833 | 24.44° C | 93% | 1017 hPa | 0 mm | 0.45 m/s, 218° | 0 W/m² | - |
| 1836274535 | 24.44° C | 93% | 1017 hPa | 0 mm | 0.45 m/s, 292° | 0 W/m² | - |
| 1836274386 | 24.44° C | 93% | 1017 hPa | 0 mm | 0.45 m/s, 228° | 0 W/m² | - |
| 1836274234 | 24.44° C | 93% | 1017 hPa | 0 mm | 0.45 m/s, 230° | 0 W/m² | - |
| 1836273934 | 24.44° C | 93% | 1017 hPa | 0 mm | 0 m/s | 0 W/m² | - |
| 1778054309 | 17.78° C | 89% | 1015.7 hPa | 0 mm | 0.45 m/s, 229° | 0 W/m² | - |
| 1778054009 | 17.78° C | 89% | 1015.7 hPa | 0 mm | 0.45 m/s, 210° | 0 W/m² | - |
| 1778053707 | 17.78° C | 88% | 1015.7 hPa | 0 mm | 0.45 m/s, 227° | 0 W/m² | - |
| 1778053410 | 17.78° C | 88% | 1015.7 hPa | 0 mm | 0.45 m/s, 224° | 0 W/m² | - |
| 1778053110 | 17.78° C | 87% | 1015.7 hPa | 0 mm | 0.45 m/s, 225° | 0 W/m² | - |
| 1778052808 | 18.33° C | 87% | 1015.8 hPa | 0 mm | 0.45 m/s, 200° | 0 W/m² | - |
| 1778052509 | 18.33° C | 87% | 1015.9 hPa | 0 mm | 0.45 m/s, 280° | 0 W/m² | - |
| 1778052209 | 18.33° C | 87% | 1015.9 hPa | 0 mm | 0.45 m/s, 330° | 0 W/m² | - |
| 1778051909 | 18.33° C | 88% | 1015.9 hPa | 0 mm | 0.45 m/s, 323° | 0 W/m² | - |
| 1778051608 | 18.33° C | 87% | 1015.8 hPa | 0 mm | 0.45 m/s, 32° | 0 W/m² | - |
| 1778051310 | 18.33° C | 87% | 1015.9 hPa | 0 mm | 0.45 m/s, 346° | 0 W/m² | - |
| 1778051010 | 18.33° C | 87% | 1015.9 hPa | 0 mm | 0 m/s | 0 W/m² | - |
| 1778050710 | 18.33° C | 86% | 1015.9 hPa | 0 mm | 0.45 m/s, 87° | 0 W/m² | - |
| 1778050410 | 18.33° C | 86% | 1015.8 hPa | 0 mm | 0.45 m/s, 46° | 0 W/m² | - |
| 1778050107 | 18.33° C | 86% | 1016 hPa | 0 mm | 0.45 m/s, 333° | 0 W/m² | - |
| 1778049810 | 18.33° C | 86% | 1016 hPa | 0 mm | 0.45 m/s, 1° | 0 W/m² | - |
| 1778049509 | 18.33° C | 86% | 1016 hPa | 0 mm | 0.45 m/s, 134° | 0 W/m² | - |
| 1778049208 | 18.33° C | 85% | 1016.2 hPa | 0 mm | 0.45 m/s, 326° | 0 W/m² | - |
| 1778048908 | 18.33° C | 85% | 1016.2 hPa | 0 mm | 0.45 m/s, 223° | 0 W/m² | - |
| 1778048609 | 18.33° C | 85% | 1016.2 hPa | 0 mm | 0.45 m/s, 9° | 0 W/m² | - |
* Rain latest hour (hover to see other rain measurements)
** Current wind speed in m/s (hover to see current wind gust speed)